TimeEDT,TemperatureF,Dew PointF,Humidity,Sea Level PressureIn,VisibilityMPH,Wind Direction,Wind SpeedMPH,Gust SpeedMPH,PrecipitationIn,Events,Conditions,WindDirDegrees,DateUTC
12:09 AM,64.4,62.6,94,29.79,4.0,South,23.0,28.8,N/A,,Overcast,170,2013-06-08 04:09:00
12:42 AM,64.4,62.6,94,29.78,4.0,SSE,21.9,28.8,N/A,,Overcast,160,2013-06-08 04:42:00
12:53 AM,64.0,62.1,93,29.78,4.0,SSE,21.9,32.2,N/A,,Overcast,160,2013-06-08 04:53:00
1:36 AM,64.4,62.6,94,29.75,3.0,SSE,21.9,28.8,N/A,,Overcast,160,2013-06-08 05:36:00
1:53 AM,64.0,62.1,93,29.74,3.0,SSE,23.0,29.9,N/A,,Overcast,160,2013-06-08 05:53:00
2:09 AM,64.4,62.6,94,29.73,2.5,SSE,21.9,-,N/A,,Overcast,160,2013-06-08 06:09:00
2:38 AM,62.6,62.6,100,29.71,1.5,SSE,20.7,29.9,N/A,,Overcast,150,2013-06-08 06:38:00
2:53 AM,63.0,62.1,97,29.71,1.0,SSE,23.0,31.1,N/A,,Mist,160,2013-06-08 06:53:00
3:22 AM,62.6,62.6,100,29.69,2.0,SSE,23.0,31.1,N/A,,Overcast,160,2013-06-08 07:22:00
3:53 AM,63.0,62.1,97,29.67,2.5,SSE,24.2,33.4,0.00,,Overcast,160,2013-06-08 07:53:00
4:28 AM,64.4,62.6,94,29.64,3.0,SSE,25.3,34.5,N/A,,Overcast,160,2013-06-08 08:28:00
4:53 AM,64.0,63.0,96,29.63,3.0,SSE,23.0,31.1,N/A,,Overcast,160,2013-06-08 08:53:00
5:20 AM,64.4,62.6,94,29.61,2.5,SSE,25.3,35.7,N/A,,Overcast,160,2013-06-08 09:20:00
5:27 AM,64.4,62.6,94,29.61,3.0,SSE,25.3,35.7,N/A,,Overcast,160,2013-06-08 09:27:00
5:53 AM,64.0,63.0,96,29.60,3.0,South,26.5,35.7,N/A,,Overcast,170,2013-06-08 09:53:00
6:08 AM,64.4,62.6,94,29.59,2.5,South,27.6,40.3,N/A,,Overcast,170,2013-06-08 10:08:00
6:19 AM,62.6,62.6,100,29.59,1.5,South,25.3,36.8,0.00,Rain,Light Rain,170,2013-06-08 10:19:00
6:30 AM,64.4,62.6,94,29.59,3.0,South,28.8,39.1,0.00,,Overcast,180,2013-06-08 10:30:00
6:36 AM,62.6,62.6,100,29.59,1.8,South,24.2,39.1,0.00,,Overcast,180,2013-06-08 10:36:00
6:44 AM,62.6,60.8,94,29.59,1.0,South,27.6,38.0,0.00,,Overcast,180,2013-06-08 10:44:00
6:53 AM,63.0,61.0,93,29.59,1.2,South,28.8,39.1,0.00,,Overcast,190,2013-06-08 10:53:00
7:53 AM,61.0,59.0,93,29.61,1.5,SSW,25.3,39.1,N/A,,Overcast,210,2013-06-08 11:53:00
8:12 AM,60.8,59.0,94,29.62,0.5,SW,25.3,33.4,N/A,Fog,Fog,220,2013-06-08 12:12:00
8:31 AM,60.8,59.0,94,29.64,0.2,SW,24.2,32.2,0.01,Fog,Fog,220,2013-06-08 12:31:00
8:47 AM,60.8,59.0,94,29.65,0.5,SW,24.2,33.4,0.01,Fog,Fog,220,2013-06-08 12:47:00
8:53 AM,60.1,59.0,96,29.66,0.5,SW,23.0,33.4,0.01,Fog,Fog,220,2013-06-08 12:53:00
9:34 AM,60.8,60.8,100,29.67,0.2,SW,23.0,31.1,N/A,Fog,Fog,230,2013-06-08 13:34:00
9:53 AM,61.0,59.0,93,29.70,0.2,SW,24.2,29.9,N/A,Fog,Fog,230,2013-06-08 13:53:00
10:18 AM,60.8,59.0,94,29.72,0.5,WSW,21.9,27.6,N/A,Fog,Fog,250,2013-06-08 14:18:00
10:27 AM,60.8,57.2,88,29.74,2.0,WSW,23.0,32.2,N/A,,Overcast,250,2013-06-08 14:27:00
10:34 AM,59.0,57.2,94,29.74,1.5,WSW,26.5,35.7,N/A,,Overcast,250,2013-06-08 14:34:00
10:53 AM,59.0,55.9,90,29.76,4.0,West,25.3,35.7,N/A,,Overcast,260,2013-06-08 14:53:00
11:53 AM,62.1,57.0,84,29.83,10.0,West,18.4,31.1,N/A,,Overcast,260,2013-06-08 15:53:00
12:16 PM,62.6,55.4,77,29.84,10.0,WSW,20.7,29.9,N/A,,Overcast,250,2013-06-08 16:16:00
12:53 PM,62.1,55.9,80,29.87,10.0,WSW,21.9,28.8,N/A,,Overcast,240,2013-06-08 16:53:00
1:42 PM,62.6,55.4,77,29.89,9.0,WSW,20.7,28.8,N/A,,Scattered Clouds,240,2013-06-08 17:42:00
1:53 PM,63.0,55.9,78,29.89,8.0,WSW,19.6,27.6,N/A,,Partly Cloudy,240,2013-06-08 17:53:00
2:53 PM,64.0,57.0,78,29.91,10.0,WSW,19.6,26.5,N/A,,Clear,240,2013-06-08 18:53:00
3:53 PM,63.0,57.0,81,29.92,10.0,SW,16.1,-,N/A,,Clear,220,2013-06-08 19:53:00
4:53 PM,64.0,57.0,78,29.94,10.0,SW,18.4,24.2,N/A,,Clear,230,2013-06-08 20:53:00
5:53 PM,62.1,57.9,86,29.94,10.0,SW,15.0,-,N/A,,Clear,220,2013-06-08 21:53:00
6:53 PM,60.1,57.0,90,29.96,8.0,SW,16.1,-,N/A,,Clear,220,2013-06-08 22:53:00
7:53 PM,60.1,57.9,93,29.97,6.0,SW,16.1,-,N/A,,Partly Cloudy,230,2013-06-08 23:53:00
8:38 PM,60.8,57.2,88,29.98,6.0,SW,12.7,-,N/A,,Mostly Cloudy,230,2013-06-09 00:38:00
8:53 PM,60.1,57.9,93,29.98,6.0,SW,12.7,-,N/A,,Overcast,230,2013-06-09 00:53:00
9:53 PM,60.1,57.9,93,30.00,4.0,WSW,12.7,-,N/A,,Overcast,240,2013-06-09 01:53:00
10:27 PM,60.8,59.0,94,29.99,7.0,West,15.0,-,N/A,,Mostly Cloudy,260,2013-06-09 02:27:00
10:53 PM,61.0,59.0,93,29.99,6.0,West,11.5,-,N/A,,Partly Cloudy,260,2013-06-09 02:53:00
11:13 PM,60.8,59.0,94,30.00,5.0,WSW,10.4,-,N/A,,Mostly Cloudy,250,2013-06-09 03:13:00
11:32 PM,60.8,59.0,94,30.01,2.5,WSW,10.4,-,N/A,,Overcast,250,2013-06-09 03:32:00
11:40 PM,60.8,59.0,94,30.01,3.0,WSW,10.4,-,N/A,,Overcast,250,2013-06-09 03:40:00
11:51 PM,60.8,57.2,88,30.01,1.8,West,10.4,-,N/A,,Overcast,260,2013-06-09 03:51:00
11:53 PM,60.1,57.9,93,30.01,1.5,WSW,9.2,-,N/A,,Overcast,250,2013-06-09 03:53:00